Theta_e
362 362 361 362 362 361 360 357 357 358 357 355 356 356 355 353 351 350 351 349 346 344 343 342 341 340 340 340 340 341 341 340 341 340 339 339 339 338 337 337 336 336
362 363 362 361 362 361 360 359 358 358 357 356 356 356 355 353 351 349 350 349 345 344 343 341 342 342 342 342 341 340 341 341 340 339 339 339 338 338 337 337 336 337
363 363 362 361 361 361 361 359 358 357 357 356 355 355 355 352 350 348 348 348 344 344 344 342 342 343 343 343 342 341 341 341 340 340 339 339 338 338 337 337 337 337
364 363 362 361 361 361 360 360 359 358 357 356 355 355 354 352 350 348 347 346 345 344 344 343 343 343 343 343 343 342 342 341 341 339 339 339 337 337 338 338 338 337
364 364 363 362 360 360 360 360 360 358 357 357 357 355 354 353 351 349 347 346 345 345 344 344 343 344 343 343 343 342 342 342 341 340 339 339 337 338 339 339 339 338
365 365 364 362 361 360 360 360 360 359 358 358 358 356 354 353 352 350 348 347 346 346 345 344 344 344 343 344 343 342 342 342 341 340 339 338 339 338 338 338 338 338
366 366 364 363 362 360 360 361 360 360 358 358 357 356 355 353 352 351 349 347 347 346 345 344 344 344 344 344 343 343 343 342 342 341 339 340 340 338 337 338 338 338
367 366 365 363 363 362 360 360 361 360 359 359 358 356 355 354 352 352 350 348 347 346 345 344 343 344 345 344 343 343 343 342 342 342 340 340 340 339 339 339 339 338
368 368 365 364 363 362 362 361 362 362 360 360 358 357 356 354 353 352 350 348 347 345 344 344 343 343 344 344 343 343 343 343 343 342 341 340 338 338 339 339 339 339
369 369 367 366 364 363 363 362 362 363 362 361 359 357 356 355 354 352 350 348 347 345 344 343 343 343 344 344 344 344 344 343 342 341 341 340 339 339 339 339 339 339
368 369 368 367 366 365 364 362 362 364 364 362 360 358 357 356 355 352 350 348 347 345 344 343 343 343 343 343 343 344 344 343 342 339 339 341 340 340 340 339 339 339
368 368 368 368 366 365 364 363 362 364 364 363 362 360 359 358 355 353 351 349 348 346 343 343 344 344 342 342 343 344 344 343 341 337 336 339 340 340 340 340 340 340
368 367 368 368 365 364 364 364 362 363 364 364 363 361 360 359 356 353 352 350 348 346 344 343 344 344 343 342 343 344 343 343 341 336 335 338 339 339 339 340 340 340
368 367 367 367 365 365 364 364 363 363 363 363 363 362 360 359 357 355 353 350 349 347 344 343 344 344 343 342 342 343 343 342 339 336 335 338 339 338 339 339 339 339
369 368 367 366 366 366 365 365 364 363 364 364 363 362 361 360 358 356 353 351 350 347 345 345 345 343 342 342 342 342 342 341 338 334 334 337 338 339 339 339 339 339
371 370 368 367 367 368 367 366 365 365 365 364 364 363 361 360 359 357 354 352 350 348 346 347 346 342 342 342 341 340 340 339 338 335 334 336 338 339 339 338 338 338
372 372 371 368 368 369 369 368 366 366 365 364 363 363 361 360 359 357 355 352 351 348 347 348 345 342 343 341 337 338 339 339 338 336 335 336 338 339 339 339 338 338
373 374 372 370 370 370 369 369 367 367 366 363 362 362 362 361 359 358 356 353 351 350 348 347 345 344 345 339 334 336 339 338 337 337 336 337 338 339 339 339 338 337
374 375 374 371 371 370 369 369 368 367 366 363 362 362 362 361 359 358 356 353 351 350 348 346 346 346 345 339 335 338 339 337 337 338 338 338 338 338 339 338 337 336
375 375 373 371 371 370 368 368 366 366 365 363 362 361 361 361 359 357 356 353 350 349 347 346 345 344 342 338 336 337 337 337 337 338 338 339 339 338 338 336 335 336
375 374 372 371 370 368 368 367 366 366 365 362 362 362 361 359 358 356 354 351 349 348 347 346 343 340 339 336 335 336 336 335 335 337 338 339 338 336 335 333 333 337
374 373 372 371 369 368 367 367 366 365 363 361 361 360 359 358 357 355 352 350 348 347 346 344 340 338 338 336 336 337 336 333 332 334 335 333 333 333 331 330 334 338
373 371 370 369 368 368 367 366 365 363 362 361 359 358 357 357 356 354 352 349 347 345 344 341 338 337 337 336 336 337 335 332 331 331 328 327 329 331 332 332 335 338
371 369 369 368 366 366 366 364 363 362 362 361 358 357 356 354 353 351 349 348 346 343 341 339 337 338 337 336 335 334 331 329 329 328 327 327 330 332 334 335 337 338
369 368 367 366 364 364 363 361 360 360 359 358 357 357 354 351 350 348 345 344 343 342 340 338 337 338 338 336 334 332 329 329 328 327 328 331 334 333 334 336 337 338
367 366 364 364 363 362 360 359 358 357 356 355 354 353 351 349 347 345 343 341 340 339 338 338 337 336 335 335 333 331 330 330 328 327 329 335 337 337 338 339 339 339
Wind_Speed
28 27 27 25 23 22 22 22 21 21 21 20 20 20 20 20 18 19 19 18 17 15 14 15 16 16 16 14 14 14 13 13 13 13 12 11 11 9 8 7 8 7
29 28 27 26 25 24 23 23 22 22 21 21 21 20 21 21 20 20 21 21 20 18 17 18 18 19 17 16 16 15 14 14 13 12 12 12 11 10 9 8 7 7
30 29 29 27 26 25 24 23 23 23 23 22 21 21 22 23 22 22 22 22 22 21 21 21 20 20 19 17 17 16 15 16 14 13 12 13 12 11 9 8 8 9
32 30 30 28 27 26 25 24 24 24 24 24 23 23 23 24 24 24 23 23 23 23 23 22 21 21 21 19 18 18 17 16 16 14 13 14 13 12 10 9 8 8
33 32 31 29 28 27 27 27 26 25 25 25 25 25 25 25 25 26 25 25 25 24 23 23 22 21 22 21 19 19 18 17 17 16 15 15 15 15 13 11 9 9
33 33 32 30 29 29 29 28 28 27 27 27 27 27 27 27 27 27 28 27 26 25 24 24 24 23 23 23 21 20 20 18 18 18 17 16 16 16 14 12 12 11
33 34 33 31 30 30 30 30 29 29 29 29 29 29 29 29 29 29 29 29 27 26 25 26 26 25 24 25 24 22 21 20 18 19 20 18 17 17 14 13 14 13
33 34 33 32 31 31 31 31 31 31 31 29 29 30 31 31 31 31 31 31 30 29 28 28 28 27 26 26 26 24 23 22 20 21 22 21 20 18 17 15 15 14
33 33 33 33 32 32 32 31 31 31 31 30 30 30 31 32 33 34 34 34 33 32 31 30 30 30 28 27 28 27 26 25 23 23 23 22 22 21 19 17 16 15
33 33 33 33 32 33 33 31 30 30 31 31 31 30 31 33 34 34 35 35 35 34 33 33 32 32 30 29 29 29 28 27 25 24 24 23 24 22 20 18 17 17
35 33 33 33 33 32 32 31 29 28 30 32 32 31 32 34 35 35 35 36 37 36 36 35 34 34 33 31 30 29 29 28 27 27 26 25 24 23 21 19 18 17
36 34 33 34 34 32 31 31 30 29 30 31 32 31 32 33 35 36 36 37 37 37 37 37 36 36 35 33 31 30 29 28 27 27 27 26 25 23 21 20 19 18
36 36 34 34 34 34 31 30 30 30 30 31 32 32 31 31 34 36 36 37 37 37 37 37 36 35 35 34 31 30 29 29 28 27 27 26 25 23 21 20 20 19
36 36 35 34 34 34 33 31 30 31 30 31 32 31 30 30 31 33 35 36 37 37 37 37 36 34 34 34 31 29 29 29 29 28 27 25 24 23 22 20 19 19
35 35 35 34 33 33 33 32 30 30 30 30 31 31 30 28 28 29 31 33 34 35 34 33 33 33 33 32 31 29 29 29 28 28 27 25 24 23 22 21 20 19
33 33 32 32 32 32 32 32 30 28 28 28 29 30 30 27 26 27 27 28 29 32 32 30 30 31 31 32 32 32 31 29 28 27 26 25 24 22 21 21 20 18
32 31 31 31 30 30 30 30 28 26 26 26 25 27 28 27 26 26 27 26 26 28 29 28 29 31 33 34 35 35 33 29 27 26 26 25 24 22 21 21 19 17
32 30 29 29 29 28 28 27 26 24 23 23 23 23 26 26 25 25 27 27 26 26 27 28 29 31 33 35 36 35 32 28 25 25 25 24 23 21 20 19 17 17
31 29 28 28 28 27 25 25 25 24 22 22 22 21 23 25 24 23 24 26 27 27 27 27 27 28 31 34 35 35 32 27 23 22 21 22 23 23 21 19 17 18
30 28 27 26 26 25 25 24 24 24 22 21 20 19 20 22 23 21 20 23 26 27 27 26 26 28 31 32 34 35 32 27 22 20 19 20 21 22 22 21 19 18
29 27 26 25 25 25 24 23 22 22 21 19 17 16 17 20 21 20 19 20 23 25 26 25 25 27 30 31 33 34 33 29 24 22 21 21 19 17 20 22 21 19
28 27 25 25 25 24 22 21 20 20 19 18 18 16 15 16 19 20 19 19 20 22 24 24 23 24 27 31 33 33 33 32 29 26 24 22 19 17 19 22 21 20
27 26 24 24 23 22 20 19 18 17 17 18 19 17 13 12 16 19 19 18 19 20 21 22 22 22 26 30 31 30 30 30 30 29 26 24 21 19 19 21 21 20
25 24 23 23 22 20 19 18 17 16 16 17 17 16 13 13 16 17 16 16 16 18 21 21 21 23 27 29 28 26 26 27 29 29 25 22 20 19 19 21 22 22
25 24 23 23 22 20 19 19 17 16 15 14 14 12 11 13 16 15 13 13 15 19 22 21 20 23 25 25 24 24 23 25 29 27 22 19 18 19 20 21 22 23
25 24 24 23 22 21 20 19 18 16 14 13 12 10 10 12 15 15 14 13 15 19 23 24 22 22 23 23 23 23 23 25 28 26 21 19 17 18 20 22 23 22
Wind_Direction
194 195 195 195 194 193 194 195 192 189 189 190 189 189 190 190 190 192 190 187 188 189 190 193 193 194 198 199 189 181 183 188 197 201 197 193 193 198 208 216 228 243
195 195 196 196 196 195 195 196 195 192 191 191 191 189 189 190 190 190 189 186 185 189 196 197 197 197 198 200 199 194 191 194 199 200 199 200 197 197 206 212 222 234
195 195 197 196 196 197 197 197 197 196 195 195 194 191 189 190 191 190 189 187 186 189 196 199 199 197 197 199 200 199 199 198 198 198 200 204 202 201 205 212 225 230
196 197 198 198 198 198 198 198 198 197 197 198 198 194 191 191 192 191 190 190 189 192 196 198 198 197 197 200 200 201 204 203 201 200 201 205 207 205 207 218 229 228
196 197 199 199 198 199 199 199 199 198 197 198 198 195 193 193 192 191 192 193 194 195 196 196 197 197 198 200 202 202 203 203 202 202 204 205 206 206 209 215 222 225
196 197 199 199 199 198 199 201 200 199 199 199 198 196 195 195 193 192 193 195 196 196 196 196 197 198 198 200 203 203 201 202 203 205 208 207 205 207 208 209 215 224
196 198 198 199 199 199 200 202 202 202 201 200 198 197 197 197 195 194 195 196 196 196 196 196 196 197 199 200 202 204 203 202 204 207 209 211 209 206 206 208 213 219
195 197 198 199 199 201 202 202 203 204 202 201 199 198 198 198 196 195 196 196 197 197 197 197 196 197 198 199 201 203 204 204 206 208 209 212 212 208 206 211 214 216
194 195 196 198 199 201 203 203 203 204 203 202 200 199 199 199 198 197 197 198 198 198 197 197 197 197 197 198 200 201 203 204 205 207 209 211 213 210 207 208 212 216
193 194 194 195 198 200 202 203 203 202 203 203 202 201 201 201 200 200 199 199 198 198 197 197 197 197 198 199 200 201 203 204 205 205 207 210 211 211 208 208 214 219
192 193 194 195 197 200 201 202 202 200 201 203 204 204 204 203 202 201 201 200 199 198 198 197 197 198 198 199 201 202 203 204 206 205 206 208 210 210 210 212 215 220
193 193 195 196 198 201 202 203 202 201 202 202 202 204 205 204 202 202 202 202 201 200 200 198 198 198 198 198 199 202 203 204 205 206 207 209 210 210 212 215 216 219
193 195 196 197 200 202 203 203 203 204 205 203 201 203 205 204 202 203 205 205 203 202 202 200 199 198 197 196 197 200 202 203 204 204 206 209 211 211 213 218 220 222
193 196 198 199 201 203 204 204 205 206 207 204 201 203 207 205 202 203 205 206 205 204 203 202 200 198 198 197 196 198 201 204 204 203 205 207 210 213 216 220 224 225
193 196 198 200 201 202 204 205 206 207 207 204 202 204 208 208 205 204 205 205 206 205 204 203 201 199 199 196 195 199 202 204 204 203 205 207 210 214 218 222 227 230
191 195 197 199 199 201 203 205 206 207 206 204 203 205 206 208 209 206 202 202 204 204 204 202 200 201 200 195 197 202 203 203 203 202 203 206 210 214 218 224 229 234
189 193 195 196 198 199 202 203 204 206 205 204 205 205 204 208 211 207 201 199 200 202 203 201 201 204 201 197 201 206 204 200 200 201 202 205 209 214 219 224 227 230
187 190 191 192 195 197 199 201 202 203 203 205 208 208 205 207 212 210 206 203 198 197 199 200 203 206 202 200 205 207 203 200 199 200 203 206 210 216 222 225 227 231
184 186 187 189 192 195 196 197 199 201 202 205 210 213 211 210 212 214 213 208 201 198 199 200 203 205 203 205 209 207 201 197 197 199 204 207 212 219 223 226 231 237
182 183 184 186 189 191 192 195 197 198 200 203 208 213 214 211 212 213 213 210 205 201 198 196 201 205 205 207 209 205 199 194 194 199 205 208 214 222 226 228 234 242
179 180 181 183 184 186 190 194 195 194 196 198 203 207 209 210 211 210 209 209 206 201 195 194 201 205 207 209 209 204 197 195 197 202 206 209 216 226 231 234 241 245
176 177 179 178 179 182 186 188 190 191 192 194 199 205 206 208 209 208 205 202 199 196 193 195 199 204 208 210 208 202 199 201 205 209 212 217 224 231 234 239 245 245
175 175 174 173 175 178 180 182 185 188 190 192 199 205 205 199 197 197 196 194 193 194 195 196 199 204 207 205 202 200 200 205 212 217 220 224 228 230 232 238 244 244
174 173 169 169 172 174 175 180 183 185 187 190 194 199 199 192 185 182 182 185 191 195 196 194 195 198 201 199 198 199 202 208 215 217 219 223 226 229 234 238 239 239
170 170 167 167 171 174 176 178 179 180 182 183 186 189 187 181 179 175 174 185 198 202 199 195 189 190 195 197 198 203 210 215 215 213 216 223 226 230 235 235 233 234
167 167 166 167 170 172 173 172 173 175 174 169 169 171 166 164 169 171 174 188 203 206 205 203 198 197 203 207 210 215 218 213 211 213 219 225 226 229 229 226 224 227